Location: ???????
(54.9996°N, 37.9529°E)
Time: 17:12:07
(UTC+00:00)

METEOR 1-5 DEB - Visible Passes

Search period start: 08 September 2024 00:00
Search period end: 18 September 2024 00:00
Orbit: 819 x 864 km, 81.2° (Epoch: 07 September)

Date Brightness Start Highest point End Pass type
(mag) Time Alt. Az. Time Alt. Az. Time Alt. Az.
08 Sep ? 17:33:20 10° N 17:36:48 17° NE 17:39:30 12° E visible
08 Sep ? 19:15:09 10° N 19:20:39 69° ENE 19:21:19 62° ESE visible
08 Sep ? 20:58:36 10° NW 21:02:54 24° W 21:03:07 24° W visible
09 Sep ? 17:18:42 10° NNE 17:21:52 15° NE 17:24:50 11° E visible
09 Sep ? 19:00:22 10° N 19:05:50 62° ENE 19:06:39 55° ESE visible
09 Sep ? 20:43:40 10° NNW 20:48:11 27° W 20:48:27 27° W visible
10 Sep ? 17:04:06 10° NNE 17:06:56 14° NE 17:09:45 10° ENE visible
10 Sep ? 18:45:35 10° N 18:51:00 56° ENE 18:51:59 49° ESE visible
10 Sep ? 20:28:46 10° NNW 20:33:28 30° W 20:33:48 30° W visible
11 Sep ? 16:49:32 10° NNE 16:51:58 13° NE 16:54:24 10° ENE visible
11 Sep ? 18:30:48 10° N 18:36:09 50° ENE 18:37:20 43° ESE visible
11 Sep ? 20:13:52 10° NNW 20:18:43 33° W 20:19:09 33° W visible
12 Sep ? 16:35:03 10° NNE 16:37:00 12° NE 16:38:57 10° ENE visible
12 Sep ? 18:16:02 10° N 18:21:18 45° ENE 18:22:41 38° ESE visible
12 Sep ? 19:58:59 10° NNW 20:03:58 37° W 20:04:30 36° WSW visible
13 Sep ? 18:01:14 10° N 18:06:26 41° ENE 18:08:04 33° ESE visible
13 Sep ? 19:44:06 10° NNW 19:49:12 41° W 19:49:52 40° WSW visible
14 Sep ? 17:46:27 10° N 17:51:33 37° ENE 17:53:26 29° ESE visible
14 Sep ? 19:29:13 10° NNW 19:34:26 46° W 19:35:15 43° WSW visible
15 Sep ? 17:31:40 10° N 17:36:39 34° ENE 17:38:50 25° ESE visible
15 Sep ? 19:14:19 10° NNW 19:19:39 52° W 19:20:39 46° SW visible
16 Sep ? 17:16:53 10° N 17:21:45 31° ENE 17:24:14 22° ESE visible
16 Sep ? 18:59:27 10° NNW 19:04:51 58° W 19:06:03 47° SW visible
16 Sep ? 20:44:50 10° WNW 20:46:24 11° WNW 20:47:51 10° W visible
17 Sep ? 17:02:07 10° N 17:06:50 28° ENE 17:09:38 19° ESE visible
17 Sep ? 18:44:35 10° NNW 18:50:02 65° W 18:51:28 47° SSW visible
17 Sep ? 20:29:23 10° NW 20:31:42 13° WNW 20:33:17 11° W visible
